Location: *
(52.2090°N, 4.1550°W)
Time: 15:12:52
(UTC+00:00)

Mayak - Pass Details

Date: 19 July 2019
Orbit: 583 x 601 km, 97.6° (Epoch: 23 August)

Event Time Altitude Azimuth Distance (km) Brightness Sun altitude
Rises 22:27:59 0° 20° (NNE) 2,866 3.0 -12.8°
Reaches altitude 10° 22:30:20 10° 30° (NNE) 1,959 1.9 -13.0°
Maximum altitude 22:34:14 34° 96° (E) 1,000 -0.3 -13.3°
Enters shadow 22:36:22 21° 146° (SE) 1,358 0.0 -13.4°
